Location: Dehesa de la Cepeda
(40.6574°N, 4.3013°W)
Time: 09:50:03
(UTC+00:00)

Cosmos 2263 Rocket - Pass Details

Date: 05 July 2020
Orbit: 825 x 847 km, 71.0° (Epoch: 07 August)

Event Time Altitude Azimuth Distance (km) Brightness Sun altitude
Rises 20:25:19 0° 333° (NNW) 3,371 6.7 -6.2°
Reaches altitude 10° 20:27:46 10° 330° (NNW) 2,433 5.9 -6.5°
Maximum altitude 20:33:15 62° 251° (WSW) 926 2.6 -7.4°
Drops below altitude 10° 20:38:42 10° 171° (S) 2,420 4.2 -8.2°
Enters shadow 20:40:32 - 169° (S) 3,113 4.7 -8.4°
